Tracking 18784 objects as of 17-August-2017
HD Live streaming from Space Station
objects crossing your sky now

SL-3 R/B

Track SL-3 R/B now!
10-day predictions


NORAD ID: 8027
Int'l Code: 1975-064B
Perigee: 835.4 km
Apogee: 916.0 km
Inclination: 81.3 °
Period: 102.3 minutes
Semi major axis: 7246 km
RCS: 6.004 m2 (large)
Launch date: July 11, 1975
Source: Commonwealth of Independent States (former USSR) (CIS)
Launch site: PLESETSK MISSILE AND SPACE COMPLEX (PKMTR)

Note: This is a ROCKET BODY
Your satellite tracking list
Your tracking list is empty





NASA's NSSDC Master Catalog

Two Line Element Set (TLE):
1  8027U 75064B   17228.83582964 +.00000057 +00000-0 +25637-4 0  9993
2  8027 081.3005 357.2737 0055603 097.7581 262.9906 14.07317076160744
Source of the keplerian elements: AFSPC